TimeCDT,TemperatureF,Dew PointF,Humidity,Sea Level PressureIn,VisibilityMPH,Wind Direction,Wind SpeedMPH,Gust SpeedMPH,PrecipitationIn,Events,Conditions,WindDirDegrees,DateUTC
12:54 AM,48.0,41.0,77,30.05,10.0,Calm,Calm,-,N/A,,Clear,0,2013-05-07 05:54:00
1:54 AM,48.0,41.0,77,30.06,10.0,Calm,Calm,-,N/A,,Clear,0,2013-05-07 06:54:00
2:54 AM,46.0,41.0,83,30.06,10.0,Calm,Calm,-,N/A,,Clear,0,2013-05-07 07:54:00
3:54 AM,46.0,39.9,79,30.06,10.0,Calm,Calm,-,N/A,,Clear,0,2013-05-07 08:54:00
4:54 AM,44.1,39.0,82,30.06,10.0,East,3.5,-,N/A,,Clear,100,2013-05-07 09:54:00
5:54 AM,43.0,39.0,86,30.07,10.0,North,3.5,-,N/A,,Clear,10,2013-05-07 10:54:00
6:54 AM,46.9,43.0,86,30.08,10.0,Calm,Calm,-,N/A,,Clear,0,2013-05-07 11:54:00
7:54 AM,60.1,41.0,49,30.08,10.0,Calm,Calm,-,N/A,,Clear,0,2013-05-07 12:54:00
8:54 AM,68.0,39.9,36,30.09,10.0,Calm,Calm,-,N/A,,Clear,0,2013-05-07 13:54:00
9:54 AM,71.1,39.0,31,30.08,-9999.0,Variable,3.5,-,N/A,,Unknown,0,2013-05-07 14:54:00
10:54 AM,75.0,37.9,26,30.07,10.0,Calm,Calm,-,N/A,,Clear,0,2013-05-07 15:54:00
11:54 AM,77.0,30.0,18,30.06,10.0,ENE,5.8,-,N/A,,Clear,70,2013-05-07 16:54:00
12:54 PM,77.0,27.0,16,30.04,10.0,Variable,3.5,-,N/A,,Clear,0,2013-05-07 17:54:00
1:54 PM,77.0,27.0,16,30.03,10.0,Variable,5.8,-,N/A,,Clear,0,2013-05-07 18:54:00
2:54 PM,79.0,28.9,16,30.02,10.0,SE,11.5,18.4,N/A,,Clear,140,2013-05-07 19:54:00
3:54 PM,78.1,30.0,17,30.00,10.0,SSE,6.9,-,N/A,,Scattered Clouds,160,2013-05-07 20:54:00
4:54 PM,78.1,32.0,19,29.99,10.0,ESE,6.9,-,N/A,,Mostly Cloudy,120,2013-05-07 21:54:00
5:54 PM,77.0,32.0,19,30.00,10.0,SE,8.1,-,N/A,,Overcast,130,2013-05-07 22:54:00
6:54 PM,73.9,33.1,22,29.99,10.0,SE,8.1,-,N/A,,Scattered Clouds,130,2013-05-07 23:54:00
7:54 PM,71.1,33.1,25,29.99,10.0,SE,3.5,-,N/A,,Clear,130,2013-05-08 00:54:00
8:54 PM,64.9,34.0,32,30.00,10.0,SE,4.6,-,N/A,,Clear,140,2013-05-08 01:54:00
9:54 PM,61.0,34.0,36,30.01,10.0,ESE,3.5,-,N/A,,Clear,120,2013-05-08 02:54:00
10:54 PM,62.1,35.1,37,30.01,10.0,SE,4.6,-,N/A,,Clear,130,2013-05-08 03:54:00
11:54 PM,61.0,36.0,39,30.01,10.0,SSE,5.8,-,N/A,,Clear,150,2013-05-08 04:54:00